Weather History for Chillicothe, MO

Change the Weather History Date:

Sunday, December 2, 2012

  Actual Average (KIRK) Record (KIRK)
Temperature  
Mean Temperature 46 °F 33 °F  
Max Temperature 52 °F 42 °F 68 °F (1973)
Min Temperature 41 °F 24 °F -2 °F (1929)
Degree Days  
Heating Degree Days 18 32  
Month to date heating degree days 64  
Since 1 July heating degree days 1285  
Cooling Degree Days 0 0  
Month to date cooling degree days 0  
Year to date cooling degree days 939  
Moisture  
Dew Point 44 °F    
Average Humidity 94    
Maximum Humidity 97    
Minimum Humidity 83    
Precipitation  
Precipitation 0.00 in 0.07 in 1.96 in (1982)
Month to date precipitation 0.14  
Year to date precipitation 37.70  
Sea Level Pressure  
Sea Level Pressure 29.98 in    
Wind  
Wind Speed 1 mph (ESE)    
Max Wind Speed 6 mph    
Max Gust Speed -    
T = Trace of Precipitation, MM = Missing Value Source: NWS Daily Summary

Daily Weather History Graph

Daily Weather History Graph

Search for Another Location

Airport:

Trip Planner

Search our weather history database for the weather conditions in past years. The results will help you decide how hot, cold, wet, or windy it might be!

Date:

Astronomy

Dec. 02, 2012 Rise Set
Actual Time 7:17 AM CST 4:49 PM CST
Civil Twilight 6:47 AM CST 5:19 PM CST
Nautical Twilight 6:14 AM CST 5:53 PM CST
Astronomical Twilight 5:41 AM CST 6:25 PM CST
Moon 8:37 PM CST (12/2) 10:08 AM CST (12/2)
Length of Visible Light 10h 31m
Length of Day
9h 31m
Waning Gibbous, 85% of the Moon is Illuminated
Dec 2
Waning Gibbous
Dec 6
Last Quarter
Dec 13
New
Dec 19
First Quarter
Dec 28
Full

Hourly Weather History & Observations

Time (CST) Temp. Windchill Dew Point Humidity Pressure Visibility Wind Dir Wind Speed Gust Speed Precip Events Conditions
12:52 AM 44.1 °F - 43.0 °F 96% 29.90 in - Calm Calm - N/A   Unknown
1:52 AM 45.0 °F - 43.0 °F 93% 29.91 in - Calm Calm - N/A   Unknown
2:52 AM 44.1 °F - 43.0 °F 96% 29.93 in - Calm Calm - N/A   Unknown
3:52 AM 43.0 °F - 42.1 °F 97% 29.94 in - Calm Calm - N/A   Unknown
4:52 AM 44.1 °F - 43.0 °F 96% 29.96 in - Calm Calm - N/A   Unknown
5:52 AM 42.1 °F 40.2 °F 41.0 °F 96% 29.98 in - South 3.5 mph - N/A   Unknown
6:52 AM 44.1 °F - 42.1 °F 93% 29.99 in - Calm Calm - N/A   Unknown
7:52 AM 44.1 °F - 43.0 °F 96% 30.02 in - Calm Calm - N/A   Unknown
8:52 AM 46.0 °F - 44.1 °F 93% 30.04 in - Calm Calm - N/A   Unknown
9:52 AM 46.9 °F - 46.0 °F 97% 30.05 in - Calm Calm - N/A   Unknown
10:52 AM 48.0 °F - 46.9 °F 96% 30.05 in - Calm Calm - N/A   Unknown
11:52 AM 48.0 °F - 46.9 °F 96% 30.05 in - Calm Calm - N/A   Unknown
12:52 PM 48.9 °F - 46.9 °F 93% 30.02 in - Calm Calm - N/A   Unknown
1:52 PM 48.9 °F - 48.0 °F 97% 30.01 in - Variable 3.5 mph - N/A   Unknown
2:52 PM 52.0 °F - 48.0 °F 86% 29.99 in - South 3.5 mph - N/A   Unknown
3:52 PM 52.0 °F - 46.9 °F 83% 29.98 in - East 3.5 mph - N/A   Unknown
4:52 PM 50.0 °F - 46.0 °F 86% 29.97 in - NE 3.5 mph - N/A   Unknown
5:52 PM 46.0 °F - 44.1 °F 93% 29.99 in - Calm Calm - N/A   Unknown
6:52 PM 45.0 °F - 43.0 °F 93% 29.99 in - Calm Calm - N/A   Unknown
7:52 PM 42.1 °F - 41.0 °F 96% 29.98 in - Calm Calm - N/A   Unknown
8:52 PM 41.0 °F 38.0 °F 39.9 °F 96% 29.96 in - North 4.6 mph - N/A   Unknown
9:52 PM 41.0 °F - 39.9 °F 96% 29.95 in - Calm Calm - N/A   Unknown
10:52 PM 46.9 °F - 45.0 °F 93% 29.93 in - ESE 5.8 mph - N/A   Unknown
11:52 PM 48.9 °F - 46.9 °F 93% 29.92 in - ESE 4.6 mph - N/A   Unknown